This demonstration page uses our WeatherBlox Daily Observations layout. Learn more.

Left ArrowRight Arrow

Hourly Observations for January 13, 2016

Temp ( °F °C ) Dew Point ( °F °C ) Humidity (%) Winds ( mph kmh ) Pressure ( in mb ) Visibility ( mi km ) Precip ( " mm )
12:54 am 00:54 Clear 20 -6.7 15 -9.4 81 81 SSE 7 11 30.13 1020 10 16 0.00 0.00
1:54 am 01:54 Mostly Cloudy 23 -5 18 -7.8 81 81 SSE 6 9 30.11 1020 10 16 0.00 0.00
2:54 am 02:54 Cloudy 26 -3.3 21 -6.1 81 81 S 7 11 30.09 1019 10 16 0.00 0.00
3:54 am 03:54 Mostly Cloudy 24 -4.4 20 -6.7 84 84 S 5 7 30.07 1018 10 16 0.00 0.00
4:54 am 04:54 Clear 23 -5 19 -7.2 85 85 S 5 7 30.06 1018 10 16 0.00 0.00
5:54 am 05:54 Clear 25 -3.9 21 -6.1 85 85 Calm 30.05 1018 10 16 0.00 0.00
6:54 am 06:54 Clear 25 -3.9 20 -6.7 81 81 WSW 5 7 30.06 1018 10 16 0.00 0.00
7:54 am 07:54 Sunny 24 -4.4 19 -7.2 81 81 Calm 30.05 1018 10 16 0.00 0.00
8:54 am 08:54 Sunny 28 -2.2 23 -5 81 81 Calm 30.05 1018 10 16 0.00 0.00
9:54 am 09:54 Sunny 34 1.1 25 -3.9 70 70 WSW 7 11 30.04 1017 10 16 0.00 0.00
10:54 am 10:54 Sunny 39 3.9 26 -3.3 60 60 WSW 8 13 30.03 1017 10 16 0.00 0.00
11:54 am 11:54 Sunny 41 5 27 -2.8 57 57 SW 8 13 30.01 1016 10 16 0.00 0.00
12:54 pm 12:54 Sunny 43 6.1 28 -2.2 56 56 WSW 12 19 29.97 1015 10 16 0.00 0.00
1:54 pm 13:54 Sunny 46 7.8 29 -1.7 51 51 SW 14 22 29.92 1013 10 16 0.00 0.00
2:54 pm 14:54 Sunny 47 8.3 29 -1.7 50 50 WSW 12 19 29.89 1012 10 16 0.00 0.00
3:54 pm 15:54 Sunny 43 6.1 30 -1.1 60 60 SW 10 17 29.88 1012 10 16 0.00 0.00
4:54 pm 16:54 Sunny 42 5.6 31 -0.6 65 65 SW 7 11 29.87 1012 10 16 0.00 0.00
5:54 pm 17:54 Clear 39 3.9 31 -0.6 73 73 SSW 3 6 29.85 1011 10 16 0.00 0.00
6:54 pm 18:54 Clear 38 3.3 31 -0.6 76 76 SW 7 11 29.84 1011 10 16 0.00 0.00
7:54 pm 19:54 Clear 37 2.8 31 -0.6 79 79 SSW 7 11 29.82 1010 10 16 0.00 0.00
8:54 pm 20:54 Clear 38 3.3 30 -1.1 73 73 SSW 12 19 29.78 1009 10 16 0.00 0.00
9:54 pm 21:54 Clear 40 4.4 28 -2.2 63 63 SW 13 20 29.76 1008 10 16 0.00 0.00
10:54 pm 22:54 Clear 40 4.4 27 -2.8 60 60 SW 14 22 29.73 1007 10 16 0.00 0.00
11:54 pm 23:54 Clear 39 3.9 27 -2.8 62 62 SSW 10 17 29.71 1006 10 16 0.00 0.00

Powered by AerisWeather